Year,Month,Day,Hour,Minute,Value (Times are PST for temperature in C)
2020,01,23,00,00,26.40
2020,01,23,00,01,26.40
2020,01,23,00,02,26.40
2020,01,23,00,03,26.40
2020,01,23,00,04,26.50
2020,01,23,00,05,26.50
2020,01,23,00,06,26.50
2020,01,23,00,07,26.50
2020,01,23,00,08,26.50
2020,01,23,00,09,26.60
2020,01,23,00,10,26.60
2020,01,23,00,11,26.60
2020,01,23,00,12,26.60
2020,01,23,00,13,26.60
2020,01,23,00,14,26.70
2020,01,23,00,15,26.70
2020,01,23,00,16,26.70
2020,01,23,00,17,26.70
2020,01,23,00,18,26.70
2020,01,23,00,19,26.70
2020,01,23,00,20,26.70
2020,01,23,00,21,26.70
2020,01,23,00,22,26.70
2020,01,23,00,23,26.70
2020,01,23,00,24,26.70
2020,01,23,00,25,26.70
2020,01,23,00,26,26.70
2020,01,23,00,27,26.70
2020,01,23,00,28,26.80
2020,01,23,00,29,26.80
2020,01,23,00,30,26.80
2020,01,23,00,31,26.80
2020,01,23,00,32,26.80
2020,01,23,00,33,26.80
2020,01,23,00,34,26.80
2020,01,23,00,35,26.80
2020,01,23,00,36,26.80
2020,01,23,00,37,26.80
2020,01,23,00,38,26.80
2020,01,23,00,39,26.80
2020,01,23,00,40,26.80
2020,01,23,00,41,26.80
2020,01,23,00,42,26.80
2020,01,23,00,43,26.80
2020,01,23,00,44,26.80
2020,01,23,00,45,26.80
2020,01,23,00,46,26.80
2020,01,23,00,47,26.80
2020,01,23,00,48,26.80
2020,01,23,00,49,26.80
2020,01,23,00,50,26.70
2020,01,23,00,51,26.70
2020,01,23,00,52,26.70
2020,01,23,00,53,26.70
2020,01,23,00,54,26.70
2020,01,23,00,55,26.70
2020,01,23,00,56,26.70
2020,01,23,00,57,26.70
2020,01,23,00,58,26.70
2020,01,23,00,59,26.70
2020,01,23,01,00,26.80
2020,01,23,01,01,26.80
2020,01,23,01,02,26.80
2020,01,23,01,03,26.80
2020,01,23,01,04,26.80
2020,01,23,01,05,26.80
2020,01,23,01,06,26.80
2020,01,23,01,07,26.80
2020,01,23,01,08,26.80
2020,01,23,01,09,26.80
2020,01,23,01,10,26.80
2020,01,23,01,11,26.80
2020,01,23,01,12,26.90
2020,01,23,01,13,26.90
2020,01,23,01,14,26.90
2020,01,23,01,15,26.90
2020,01,23,01,16,26.90
2020,01,23,01,17,26.90
2020,01,23,01,18,26.90
2020,01,23,01,19,26.90
2020,01,23,01,20,26.90
2020,01,23,01,21,26.90
2020,01,23,01,22,26.90
2020,01,23,01,23,26.90
2020,01,23,01,24,26.90
2020,01,23,01,25,26.90
2020,01,23,01,26,26.90
2020,01,23,01,27,26.90
2020,01,23,01,28,26.90
2020,01,23,01,29,26.90
2020,01,23,01,30,26.90
2020,01,23,01,31,26.90
2020,01,23,01,32,26.90
2020,01,23,01,33,26.90
2020,01,23,01,34,26.90
2020,01,23,01,35,26.90
2020,01,23,01,36,26.90
2020,01,23,01,37,26.90
2020,01,23,01,38,26.90
2020,01,23,01,39,26.90
2020,01,23,01,40,26.90
2020,01,23,01,41,26.90
2020,01,23,01,42,26.90
2020,01,23,01,43,27.00
2020,01,23,01,44,27.00
2020,01,23,01,45,27.00
2020,01,23,01,46,27.00
2020,01,23,01,47,27.10
2020,01,23,01,48,27.10
2020,01,23,01,49,27.10
2020,01,23,01,50,27.10
2020,01,23,01,51,27.10
2020,01,23,01,52,27.10
2020,01,23,01,53,27.10
2020,01,23,01,54,27.10
2020,01,23,01,55,27.10
2020,01,23,01,56,27.10
2020,01,23,01,57,27.10
2020,01,23,01,58,27.10
2020,01,23,01,59,27.10
2020,01,23,02,00,27.10
2020,01,23,02,01,27.10
2020,01,23,02,02,27.10
2020,01,23,02,03,27.20
2020,01,23,02,04,27.20
2020,01,23,02,05,27.20
2020,01,23,02,06,27.20
2020,01,23,02,07,27.20
2020,01,23,02,08,27.20
2020,01,23,02,09,27.20
2020,01,23,02,10,27.20
2020,01,23,02,11,27.20
2020,01,23,02,12,27.30
2020,01,23,02,13,27.20
2020,01,23,02,14,27.30
2020,01,23,02,15,27.30
2020,01,23,02,16,27.30
2020,01,23,02,17,27.30
2020,01,23,02,18,27.30
2020,01,23,02,19,27.40
2020,01,23,02,20,27.30
2020,01,23,02,21,27.40
2020,01,23,02,22,27.40
2020,01,23,02,23,27.40
2020,01,23,02,24,27.40
2020,01,23,02,25,27.40
2020,01,23,02,26,27.30
2020,01,23,02,27,27.30
2020,01,23,02,28,27.30
2020,01,23,02,29,27.30
2020,01,23,02,30,27.30
2020,01,23,02,31,27.30
2020,01,23,02,32,27.30
2020,01,23,02,33,27.30
2020,01,23,02,34,27.40
2020,01,23,02,35,27.40
2020,01,23,02,36,27.40
2020,01,23,02,37,27.40
2020,01,23,02,38,27.50
2020,01,23,02,39,27.70
2020,01,23,02,40,28.20
2020,01,23,02,41,28.70
2020,01,23,02,42,29.20
2020,01,23,02,43,29.50
2020,01,23,02,44,29.60
2020,01,23,02,45,29.60
2020,01,23,02,46,29.80
2020,01,23,02,47,30.30
2020,01,23,02,48,30.70
2020,01,23,02,49,31.10
2020,01,23,02,50,31.30
2020,01,23,02,51,31.50
2020,01,23,02,52,31.60
2020,01,23,02,53,31.70
2020,01,23,02,54,31.80
2020,01,23,02,55,31.80
2020,01,23,02,56,31.80
2020,01,23,02,57,31.80
2020,01,23,02,58,31.90
2020,01,23,02,59,31.90
2020,01,23,03,00,31.90
2020,01,23,03,01,31.90
2020,01,23,03,02,31.90
2020,01,23,03,03,31.90
2020,01,23,03,04,32.00
2020,01,23,03,05,32.00
2020,01,23,03,06,32.00
2020,01,23,03,07,32.00
2020,01,23,03,08,32.10
2020,01,23,03,09,32.10
2020,01,23,03,10,32.10
2020,01,23,03,11,32.10
2020,01,23,03,12,32.10
2020,01,23,03,13,32.20
2020,01,23,03,14,32.20
2020,01,23,03,15,32.20
2020,01,23,03,16,32.20
2020,01,23,03,17,32.20
2020,01,23,03,18,32.30
2020,01,23,03,19,32.30
2020,01,23,03,20,32.30
2020,01,23,03,21,32.30
2020,01,23,03,22,32.30
2020,01,23,03,23,32.30
2020,01,23,03,24,32.30
2020,01,23,03,25,32.30
2020,01,23,03,26,32.30
2020,01,23,03,27,32.40
2020,01,23,03,28,32.40
2020,01,23,03,29,32.50
2020,01,23,03,30,32.50
2020,01,23,03,31,32.60
2020,01,23,03,32,32.60
2020,01,23,03,33,32.60
2020,01,23,03,34,32.60
2020,01,23,03,35,32.60
2020,01,23,03,36,32.60
2020,01,23,03,37,32.60
2020,01,23,03,38,32.60
2020,01,23,03,39,32.60
2020,01,23,03,40,32.60
2020,01,23,03,41,32.60
2020,01,23,03,42,32.70
2020,01,23,03,43,32.70
2020,01,23,03,44,32.70
2020,01,23,03,45,32.70
2020,01,23,03,46,32.70
2020,01,23,03,47,32.70
2020,01,23,03,48,32.70
2020,01,23,03,49,32.70
2020,01,23,03,50,32.70
2020,01,23,03,51,32.70
2020,01,23,03,52,32.70
2020,01,23,03,53,32.70
2020,01,23,03,54,32.70
2020,01,23,03,55,32.70
2020,01,23,03,56,32.70
2020,01,23,03,57,32.70
2020,01,23,03,58,32.70
2020,01,23,03,59,32.80
2020,01,23,04,00,32.80
2020,01,23,04,01,32.80
2020,01,23,04,02,32.80
2020,01,23,04,03,32.80
2020,01,23,04,04,32.80
2020,01,23,04,05,32.80
2020,01,23,04,06,32.80
2020,01,23,04,07,32.80
2020,01,23,04,08,32.80
2020,01,23,04,09,32.80
2020,01,23,04,10,32.80
2020,01,23,04,11,32.80
2020,01,23,04,12,32.80
2020,01,23,04,13,32.80
2020,01,23,04,14,32.80
2020,01,23,04,15,32.80
2020,01,23,04,16,32.80
2020,01,23,04,17,32.80
2020,01,23,04,18,32.80
2020,01,23,04,19,32.80
2020,01,23,04,20,32.80
2020,01,23,04,21,32.80
2020,01,23,04,22,32.70
2020,01,23,04,23,32.70
2020,01,23,04,24,32.70
2020,01,23,04,25,32.70
2020,01,23,04,26,32.70
2020,01,23,04,27,32.70
2020,01,23,04,28,32.70
2020,01,23,04,29,32.70
2020,01,23,04,30,32.70
2020,01,23,04,31,32.70
2020,01,23,04,32,32.70
2020,01,23,04,33,32.70
2020,01,23,04,34,32.70
2020,01,23,04,35,32.70
2020,01,23,04,36,32.80
2020,01,23,04,37,32.80
2020,01,23,04,38,32.80
2020,01,23,04,39,32.80
2020,01,23,04,40,32.80
2020,01,23,04,41,32.80
2020,01,23,04,42,32.80
2020,01,23,04,43,32.80
2020,01,23,04,44,32.80
2020,01,23,04,45,32.80
2020,01,23,04,46,32.80
2020,01,23,04,47,32.80
2020,01,23,04,48,32.80
2020,01,23,04,49,32.80
2020,01,23,04,50,32.80
2020,01,23,04,51,32.70
2020,01,23,04,52,32.70
2020,01,23,04,53,32.70
2020,01,23,04,54,32.70
2020,01,23,04,55,32.70
2020,01,23,04,56,32.70
2020,01,23,04,57,32.70
2020,01,23,04,58,32.70
2020,01,23,04,59,32.70
2020,01,23,05,00,32.70
2020,01,23,05,01,32.70
2020,01,23,05,02,32.70
2020,01,23,05,03,32.70
2020,01,23,05,04,32.70
2020,01,23,05,05,32.70
2020,01,23,05,06,32.70
2020,01,23,05,07,32.70
2020,01,23,05,08,32.70
2020,01,23,05,09,32.70
2020,01,23,05,10,32.60
2020,01,23,05,11,32.60
2020,01,23,05,12,32.60
2020,01,23,05,13,32.60
2020,01,23,05,14,32.60
2020,01,23,05,15,32.60
2020,01,23,05,16,32.60
2020,01,23,05,17,32.60
2020,01,23,05,18,32.60
2020,01,23,05,19,32.60
2020,01,23,05,20,32.60
2020,01,23,05,21,32.60
2020,01,23,05,22,32.60
2020,01,23,05,23,32.60
2020,01,23,05,24,32.60
2020,01,23,05,25,32.60
2020,01,23,05,26,32.60
2020,01,23,05,27,32.60
2020,01,23,05,28,32.60
2020,01,23,05,29,32.60
2020,01,23,05,30,32.60
2020,01,23,05,31,32.60
2020,01,23,05,32,32.70
2020,01,23,05,33,32.70
2020,01,23,05,34,32.70
2020,01,23,05,35,32.70
2020,01,23,05,36,32.80
2020,01,23,05,37,32.80
2020,01,23,05,38,32.70
2020,01,23,05,39,32.70
2020,01,23,05,40,32.70
2020,01,23,05,41,32.70
2020,01,23,05,42,32.60
2020,01,23,05,43,32.60
2020,01,23,05,44,32.60
2020,01,23,05,45,32.60
2020,01,23,05,46,32.60
2020,01,23,05,47,32.60
2020,01,23,05,48,32.60
2020,01,23,05,49,32.60
2020,01,23,05,50,32.60
2020,01,23,05,51,32.60
2020,01,23,05,52,32.60
2020,01,23,05,53,32.50
2020,01,23,05,54,32.50
2020,01,23,05,55,32.60
2020,01,23,05,56,32.60
2020,01,23,05,57,32.60
2020,01,23,05,58,32.60
2020,01,23,05,59,32.50
2020,01,23,06,00,32.50
2020,01,23,06,01,32.50
2020,01,23,06,02,32.50
2020,01,23,06,03,32.50
2020,01,23,06,04,32.50
2020,01,23,06,05,32.50
2020,01,23,06,06,32.50
2020,01,23,06,07,32.50
2020,01,23,06,08,32.50
2020,01,23,06,09,32.40
2020,01,23,06,10,32.40
2020,01,23,06,11,32.40
2020,01,23,06,12,32.40
2020,01,23,06,13,32.30
2020,01,23,06,14,32.30
2020,01,23,06,15,32.30
2020,01,23,06,16,32.30
2020,01,23,06,17,32.30
2020,01,23,06,18,32.20
2020,01,23,06,19,32.20
2020,01,23,06,20,32.10
2020,01,23,06,21,32.00
2020,01,23,06,22,32.00
2020,01,23,06,23,32.00
2020,01,23,06,24,31.90
2020,01,23,06,25,31.90
2020,01,23,06,26,31.90
2020,01,23,06,27,31.80
2020,01,23,06,28,31.80
2020,01,23,06,29,31.80
2020,01,23,06,30,31.80
2020,01,23,06,31,31.80
2020,01,23,06,32,31.80
2020,01,23,06,33,31.90
2020,01,23,06,34,31.90
2020,01,23,06,35,31.90
2020,01,23,06,36,31.90
2020,01,23,06,37,31.90
2020,01,23,06,38,32.00
2020,01,23,06,39,32.00
2020,01,23,06,40,32.00
2020,01,23,06,41,32.00
2020,01,23,06,42,32.00
2020,01,23,06,43,32.00
2020,01,23,06,44,32.00
2020,01,23,06,45,31.90
2020,01,23,06,46,31.90
2020,01,23,06,47,31.90
2020,01,23,06,48,31.90
2020,01,23,06,49,31.90
2020,01,23,06,50,31.90
2020,01,23,06,51,31.90
2020,01,23,06,52,31.90
2020,01,23,06,53,31.90
2020,01,23,06,54,31.90
2020,01,23,06,55,31.90
2020,01,23,06,56,31.80
2020,01,23,06,57,31.80
2020,01,23,06,58,31.80
2020,01,23,06,59,31.80
2020,01,23,07,00,31.70
2020,01,23,07,01,31.70
2020,01,23,07,02,31.70
2020,01,23,07,03,31.70
2020,01,23,07,04,31.70
2020,01,23,07,05,31.70
2020,01,23,07,06,31.70
2020,01,23,07,07,31.70
2020,01,23,07,08,31.70
2020,01,23,07,09,31.70
2020,01,23,07,10,31.70
2020,01,23,07,11,31.70
2020,01,23,07,12,31.70
2020,01,23,07,13,31.70
2020,01,23,07,14,31.70
2020,01,23,07,15,31.70
2020,01,23,07,16,31.70
2020,01,23,07,17,31.70
2020,01,23,07,18,31.70
2020,01,23,07,19,31.70
2020,01,23,07,20,31.70
2020,01,23,07,21,31.70
2020,01,23,07,22,31.70
2020,01,23,07,23,31.70
2020,01,23,07,24,31.70
2020,01,23,07,25,31.70
2020,01,23,07,26,31.70
2020,01,23,07,27,31.70
2020,01,23,07,28,31.70
2020,01,23,07,29,31.80
2020,01,23,07,30,31.80
2020,01,23,07,31,31.80
2020,01,23,07,32,31.80
2020,01,23,07,33,31.80
2020,01,23,07,34,31.80
2020,01,23,07,35,31.80
2020,01,23,07,36,31.80
2020,01,23,07,37,31.80
2020,01,23,07,38,31.70
2020,01,23,07,39,31.70
2020,01,23,07,40,31.70
2020,01,23,07,41,31.70
2020,01,23,07,42,31.70
2020,01,23,07,43,31.70
2020,01,23,07,44,31.70
2020,01,23,07,45,31.70
2020,01,23,07,46,31.70
2020,01,23,07,47,31.70
2020,01,23,07,48,31.70
2020,01,23,07,49,31.70
2020,01,23,07,50,31.70
2020,01,23,07,51,31.70
2020,01,23,07,52,31.70
2020,01,23,07,53,31.80
2020,01,23,07,54,31.80
2020,01,23,07,55,31.80
2020,01,23,07,56,31.80
2020,01,23,07,57,31.80
2020,01,23,07,58,31.80
2020,01,23,07,59,31.80
2020,01,23,08,00,31.80
2020,01,23,08,01,31.80
2020,01,23,08,02,31.80
2020,01,23,08,03,31.80
2020,01,23,08,04,31.80
2020,01,23,08,05,31.90
2020,01,23,08,06,31.90
2020,01,23,08,07,31.90
2020,01,23,08,08,31.90
2020,01,23,08,09,31.80
2020,01,23,08,10,31.90
2020,01,23,08,11,31.90
2020,01,23,08,12,31.90
2020,01,23,08,13,31.90
2020,01,23,08,14,31.90
2020,01,23,08,15,31.90
2020,01,23,08,16,31.90
2020,01,23,08,17,31.90
2020,01,23,08,18,31.90
2020,01,23,08,19,31.80
2020,01,23,08,20,31.80
2020,01,23,08,21,31.80
2020,01,23,08,22,31.80
2020,01,23,08,23,31.80
2020,01,23,08,24,31.80
2020,01,23,08,25,31.80
2020,01,23,08,26,31.80
2020,01,23,08,27,31.80
2020,01,23,08,28,31.80
2020,01,23,08,29,31.80
2020,01,23,08,30,31.80
2020,01,23,08,31,31.80
2020,01,23,08,32,31.80
2020,01,23,08,33,31.80
2020,01,23,08,34,31.70
2020,01,23,08,35,31.70
2020,01,23,08,36,31.70
2020,01,23,08,37,31.70
2020,01,23,08,38,31.70
2020,01,23,08,39,31.70
2020,01,23,08,40,31.70
2020,01,23,08,41,31.70
2020,01,23,08,42,31.80
2020,01,23,08,43,31.70
2020,01,23,08,44,31.70
2020,01,23,08,45,31.70
2020,01,23,08,46,31.70
2020,01,23,08,47,31.70
2020,01,23,08,48,31.70
2020,01,23,08,49,31.70
2020,01,23,08,50,31.60
2020,01,23,08,51,31.60
2020,01,23,08,52,31.60
2020,01,23,08,53,31.60
2020,01,23,08,54,31.60
2020,01,23,08,55,31.60
2020,01,23,08,56,31.60
2020,01,23,08,57,31.60
2020,01,23,08,58,31.60
2020,01,23,08,59,31.60
2020,01,23,09,00,31.60
2020,01,23,09,01,31.50
2020,01,23,09,02,31.50
2020,01,23,09,03,31.50
2020,01,23,09,04,31.50
2020,01,23,09,05,31.50
2020,01,23,09,06,31.50
2020,01,23,09,07,31.40
2020,01,23,09,08,31.40
2020,01,23,09,09,31.40
2020,01,23,09,10,31.40
2020,01,23,09,11,31.40
2020,01,23,09,12,31.40
2020,01,23,09,13,31.40
2020,01,23,09,14,31.40
2020,01,23,09,15,31.40
2020,01,23,09,16,31.30
2020,01,23,09,17,31.30
2020,01,23,09,18,31.30
2020,01,23,09,19,31.30
2020,01,23,09,20,31.30
2020,01,23,09,21,31.30
2020,01,23,09,22,31.30
2020,01,23,09,23,31.30
2020,01,23,09,24,31.30
2020,01,23,09,25,31.30
2020,01,23,09,26,31.20
2020,01,23,09,27,31.20
2020,01,23,09,28,31.20
2020,01,23,09,29,31.20
2020,01,23,09,30,31.20
2020,01,23,09,31,31.10
2020,01,23,09,32,31.10
2020,01,23,09,33,31.10
2020,01,23,09,34,31.10
2020,01,23,09,35,31.10
2020,01,23,09,36,31.10
2020,01,23,09,37,31.10
2020,01,23,09,38,31.10
2020,01,23,09,39,31.10
2020,01,23,09,40,31.10
2020,01,23,09,41,31.10
2020,01,23,09,42,31.10
2020,01,23,09,43,31.10
2020,01,23,09,44,31.00
2020,01,23,09,45,31.00
2020,01,23,09,46,31.00
2020,01,23,09,47,31.00
2020,01,23,09,48,31.00
2020,01,23,09,49,31.00
2020,01,23,09,50,31.00
2020,01,23,09,51,31.00
2020,01,23,09,52,31.00
2020,01,23,09,53,31.00
2020,01,23,09,54,31.00
2020,01,23,09,55,31.00
2020,01,23,09,56,31.00
2020,01,23,09,57,31.00
2020,01,23,09,58,31.10
2020,01,23,09,59,31.10
2020,01,23,10,00,31.10
2020,01,23,10,01,31.10
2020,01,23,10,02,31.10
2020,01,23,10,03,31.10
2020,01,23,10,04,31.10
2020,01,23,10,05,31.10
2020,01,23,10,06,31.10
2020,01,23,10,07,31.10
2020,01,23,10,08,31.10
2020,01,23,10,09,31.10
2020,01,23,10,10,31.10
2020,01,23,10,11,31.00
2020,01,23,10,12,31.00
2020,01,23,10,13,31.00
2020,01,23,10,14,31.00
2020,01,23,10,15,31.00
2020,01,23,10,16,31.00
2020,01,23,10,17,31.00
2020,01,23,10,18,31.00
2020,01,23,10,19,31.00
2020,01,23,10,20,31.10
2020,01,23,10,21,31.10
2020,01,23,10,22,31.10
2020,01,23,10,23,31.10
2020,01,23,10,24,31.10
2020,01,23,10,25,31.10
2020,01,23,10,26,31.10
2020,01,23,10,27,31.10
2020,01,23,10,28,31.10
2020,01,23,10,29,31.10
2020,01,23,10,30,31.00
2020,01,23,10,31,31.00
2020,01,23,10,32,31.00
2020,01,23,10,33,31.00
2020,01,23,10,34,31.00
2020,01,23,10,35,31.00
2020,01,23,10,36,31.00
2020,01,23,10,37,31.00
2020,01,23,10,38,31.00
2020,01,23,10,39,31.00
2020,01,23,10,40,31.00
2020,01,23,10,41,30.90
2020,01,23,10,42,30.90
2020,01,23,10,43,31.00
2020,01,23,10,44,31.00
2020,01,23,10,45,31.00
2020,01,23,10,46,31.10
2020,01,23,10,47,31.10
2020,01,23,10,48,31.20
2020,01,23,10,49,31.20
2020,01,23,10,50,31.20
2020,01,23,10,51,31.30
2020,01,23,10,52,31.30
2020,01,23,10,53,31.30
2020,01,23,10,54,31.30
2020,01,23,10,55,31.20
2020,01,23,10,56,31.20
2020,01,23,10,57,31.20
2020,01,23,10,58,31.20
2020,01,23,10,59,31.20
2020,01,23,11,00,31.20
2020,01,23,11,01,31.20
2020,01,23,11,02,31.20
2020,01,23,11,03,31.20
2020,01,23,11,04,31.20
2020,01,23,11,05,31.20
2020,01,23,11,06,31.20
2020,01,23,11,07,31.20
2020,01,23,11,08,31.20
2020,01,23,11,09,31.20
2020,01,23,11,10,31.20
2020,01,23,11,11,31.20
2020,01,23,11,12,31.10
2020,01,23,11,13,31.10
2020,01,23,11,14,31.10
2020,01,23,11,15,31.10
2020,01,23,11,16,31.10
2020,01,23,11,17,31.10
2020,01,23,11,18,31.00
2020,01,23,11,19,31.00
2020,01,23,11,20,31.00
2020,01,23,11,21,31.00
2020,01,23,11,22,30.90
2020,01,23,11,23,30.90
2020,01,23,11,24,30.90
2020,01,23,11,25,30.90
2020,01,23,11,26,30.90
2020,01,23,11,27,30.90
2020,01,23,11,28,30.90
2020,01,23,11,29,30.90
2020,01,23,11,30,30.90
2020,01,23,11,31,30.90
2020,01,23,11,32,30.80
2020,01,23,11,33,30.80
2020,01,23,11,34,30.80
2020,01,23,11,35,30.80
2020,01,23,11,36,30.80
2020,01,23,11,37,30.80
2020,01,23,11,38,30.80
2020,01,23,11,39,30.80
2020,01,23,11,40,30.80
2020,01,23,11,41,30.80
2020,01,23,11,42,30.80
2020,01,23,11,43,30.70
2020,01,23,11,44,30.70
2020,01,23,11,45,30.70
2020,01,23,11,46,30.70
2020,01,23,11,47,30.70
2020,01,23,11,48,30.70
2020,01,23,11,49,30.70
2020,01,23,11,50,30.70
2020,01,23,11,51,30.70
2020,01,23,11,52,30.70
2020,01,23,11,53,30.70
2020,01,23,11,54,30.70
2020,01,23,11,55,30.70
2020,01,23,11,56,30.70
2020,01,23,11,57,30.70
2020,01,23,11,58,30.70
2020,01,23,11,59,30.70
2020,01,23,12,00,30.70
2020,01,23,12,01,30.70
2020,01,23,12,02,30.70
2020,01,23,12,03,30.70
2020,01,23,12,04,30.70
2020,01,23,12,05,30.70
2020,01,23,12,06,30.70
2020,01,23,12,07,30.80
2020,01,23,12,08,30.80
2020,01,23,12,09,30.80
2020,01,23,12,10,30.80
2020,01,23,12,11,30.80
2020,01,23,12,12,30.90
2020,01,23,12,13,30.90
2020,01,23,12,14,30.90
2020,01,23,12,15,30.90
2020,01,23,12,16,31.00
2020,01,23,12,17,31.00
2020,01,23,12,18,31.00
2020,01,23,12,19,31.00
2020,01,23,12,20,31.00
2020,01,23,12,21,31.10
2020,01,23,12,22,31.00
2020,01,23,12,23,31.00
2020,01,23,12,24,31.10
2020,01,23,12,25,31.10
2020,01,23,12,26,31.10
2020,01,23,12,27,31.00
2020,01,23,12,28,31.00
2020,01,23,12,29,31.00
2020,01,23,12,30,31.00
2020,01,23,12,31,31.00
2020,01,23,12,32,30.90
2020,01,23,12,33,30.90
2020,01,23,12,34,30.90
2020,01,23,12,35,30.90
2020,01,23,12,36,30.90
2020,01,23,12,37,30.80
2020,01,23,12,38,30.80
2020,01,23,12,39,30.80
2020,01,23,12,40,30.80
2020,01,23,12,41,30.80
2020,01,23,12,42,30.80
2020,01,23,12,43,30.80
2020,01,23,12,44,30.80
2020,01,23,12,45,30.80
2020,01,23,12,46,30.70
2020,01,23,12,47,30.70
2020,01,23,12,48,30.70
2020,01,23,12,49,30.70
2020,01,23,12,50,30.70
2020,01,23,12,51,30.70
2020,01,23,12,52,30.70
2020,01,23,12,53,30.70
2020,01,23,12,54,30.70
2020,01,23,12,55,30.70
2020,01,23,12,56,30.70
2020,01,23,12,57,30.70
2020,01,23,12,58,30.60
2020,01,23,12,59,30.60
2020,01,23,13,00,30.60
2020,01,23,13,01,30.60
2020,01,23,13,02,30.70
2020,01,23,13,03,30.70
2020,01,23,13,04,30.70
2020,01,23,13,05,30.70
2020,01,23,13,06,30.70
2020,01,23,13,07,30.70
2020,01,23,13,08,30.80
2020,01,23,13,09,30.80
2020,01,23,13,10,30.80
2020,01,23,13,11,30.80
2020,01,23,13,12,30.80
2020,01,23,13,13,30.80
2020,01,23,13,14,30.90
2020,01,23,13,15,30.90
2020,01,23,13,16,30.90
2020,01,23,13,17,30.90
2020,01,23,13,18,30.90
2020,01,23,13,19,30.90
2020,01,23,13,20,30.90
2020,01,23,13,21,30.90
2020,01,23,13,22,30.90
2020,01,23,13,23,30.90
2020,01,23,13,24,30.90
2020,01,23,13,25,30.90
2020,01,23,13,26,30.90
2020,01,23,13,27,30.90
2020,01,23,13,28,30.90
2020,01,23,13,29,30.90
2020,01,23,13,30,30.90
2020,01,23,13,31,30.90
2020,01,23,13,32,30.90
2020,01,23,13,33,30.90
2020,01,23,13,34,31.00
2020,01,23,13,35,31.00
2020,01,23,13,36,31.00
2020,01,23,13,37,31.00
2020,01,23,13,38,31.00
2020,01,23,13,39,31.00
2020,01,23,13,40,31.10
2020,01,23,13,41,31.10
2020,01,23,13,42,31.10
2020,01,23,13,43,31.10
2020,01,23,13,44,31.00
2020,01,23,13,45,31.10
2020,01,23,13,46,31.10
2020,01,23,13,47,31.00
2020,01,23,13,48,31.00
2020,01,23,13,49,31.00
2020,01,23,13,50,31.00
2020,01,23,13,51,31.00
2020,01,23,13,52,31.00
2020,01,23,13,53,31.00
2020,01,23,13,54,31.00
2020,01,23,13,55,30.90
2020,01,23,13,56,30.90
2020,01,23,13,57,30.90
2020,01,23,13,58,30.90
2020,01,23,13,59,30.90
2020,01,23,14,00,30.90
2020,01,23,14,01,31.00
2020,01,23,14,02,31.00
2020,01,23,14,03,30.90
2020,01,23,14,04,30.90
2020,01,23,14,05,30.90
2020,01,23,14,06,30.90
2020,01,23,14,07,30.90
2020,01,23,14,08,30.90
2020,01,23,14,09,30.90
2020,01,23,14,10,30.90
2020,01,23,14,11,30.90
2020,01,23,14,12,30.80
2020,01,23,14,13,30.80
2020,01,23,14,14,30.80
2020,01,23,14,15,30.80
2020,01,23,14,16,30.80
2020,01,23,14,17,30.70
2020,01,23,14,18,30.70
2020,01,23,14,19,30.70
2020,01,23,14,20,30.70
2020,01,23,14,21,30.70
2020,01,23,14,22,30.70
2020,01,23,14,23,30.70
2020,01,23,14,24,30.60
2020,01,23,14,25,30.70
2020,01,23,14,26,30.70
2020,01,23,14,27,30.70
2020,01,23,14,28,30.70
2020,01,23,14,29,30.70
2020,01,23,14,30,30.70
2020,01,23,14,31,30.70
2020,01,23,14,32,30.70
2020,01,23,14,33,30.70
2020,01,23,14,34,30.70
2020,01,23,14,35,30.70
2020,01,23,14,36,30.70
2020,01,23,14,37,30.70
2020,01,23,14,38,30.70
2020,01,23,14,39,30.70
2020,01,23,14,40,30.70
2020,01,23,14,41,30.70
2020,01,23,14,42,30.70
2020,01,23,14,43,30.70
2020,01,23,14,44,30.70
2020,01,23,14,45,30.70
2020,01,23,14,46,30.70
2020,01,23,14,47,30.60
2020,01,23,14,48,30.60
2020,01,23,14,49,30.60
2020,01,23,14,50,30.60
2020,01,23,14,51,30.60
2020,01,23,14,52,30.60
2020,01,23,14,53,30.60
2020,01,23,14,54,30.60
2020,01,23,14,55,30.50
2020,01,23,14,56,30.50
2020,01,23,14,57,30.50
2020,01,23,14,58,30.50
2020,01,23,14,59,30.40
2020,01,23,15,00,30.40
2020,01,23,15,01,30.50
2020,01,23,15,02,30.50
2020,01,23,15,03,30.50
2020,01,23,15,04,30.40
2020,01,23,15,05,30.40
2020,01,23,15,06,30.40
2020,01,23,15,07,30.40
2020,01,23,15,08,30.40
2020,01,23,15,09,30.40
2020,01,23,15,10,30.40
2020,01,23,15,11,30.40
2020,01,23,15,12,30.40
2020,01,23,15,13,30.40
2020,01,23,15,14,30.40
2020,01,23,15,15,30.40
2020,01,23,15,16,30.40
2020,01,23,15,17,30.40
2020,01,23,15,18,30.30
2020,01,23,15,19,30.30
2020,01,23,15,20,30.30
2020,01,23,15,21,30.30
2020,01,23,15,22,30.30
2020,01,23,15,23,30.30
2020,01,23,15,24,30.20
2020,01,23,15,25,30.20
2020,01,23,15,26,30.20
2020,01,23,15,27,30.20
2020,01,23,15,28,30.20
2020,01,23,15,29,30.20
2020,01,23,15,30,30.20
2020,01,23,15,31,30.10
2020,01,23,15,32,30.10
2020,01,23,15,33,30.10
2020,01,23,15,34,30.10
2020,01,23,15,35,30.10
2020,01,23,15,36,30.10
2020,01,23,15,37,30.00
2020,01,23,15,38,30.00
2020,01,23,15,39,30.00
2020,01,23,15,40,30.00
2020,01,23,15,41,30.00
2020,01,23,15,42,29.90
2020,01,23,15,43,29.90
2020,01,23,15,44,29.90
2020,01,23,15,45,29.90
2020,01,23,15,46,29.90
2020,01,23,15,47,29.90
2020,01,23,15,48,29.90
2020,01,23,15,49,29.80
2020,01,23,15,50,29.80
2020,01,23,15,51,29.80
2020,01,23,15,52,29.80
2020,01,23,15,53,29.80
2020,01,23,15,54,29.80
2020,01,23,15,55,29.80
2020,01,23,15,56,29.80
2020,01,23,15,57,29.80
2020,01,23,15,58,29.80
2020,01,23,15,59,29.80
2020,01,23,16,00,29.80
2020,01,23,16,01,29.80
2020,01,23,16,02,29.80
2020,01,23,16,03,29.80
2020,01,23,16,04,29.80
2020,01,23,16,05,29.80
2020,01,23,16,06,29.80
2020,01,23,16,07,29.80
2020,01,23,16,08,29.80
2020,01,23,16,09,29.70
2020,01,23,16,10,29.70
2020,01,23,16,11,29.70
2020,01,23,16,12,29.70
2020,01,23,16,13,29.70
2020,01,23,16,14,29.70
2020,01,23,16,15,29.70
2020,01,23,16,16,29.70
2020,01,23,16,17,29.70
2020,01,23,16,18,29.70
2020,01,23,16,19,29.70
2020,01,23,16,20,29.70
2020,01,23,16,21,29.60
2020,01,23,16,22,29.60
2020,01,23,16,23,29.60
2020,01,23,16,24,29.60
2020,01,23,16,25,29.60
2020,01,23,16,26,29.60
2020,01,23,16,27,29.60
2020,01,23,16,28,29.60
2020,01,23,16,29,29.60
2020,01,23,16,30,29.60
2020,01,23,16,31,29.60
2020,01,23,16,32,29.60
2020,01,23,16,33,29.60
2020,01,23,16,34,29.60
2020,01,23,16,35,29.60
2020,01,23,16,36,29.60
2020,01,23,16,37,29.60
2020,01,23,16,38,29.60
2020,01,23,16,39,29.70
2020,01,23,16,40,29.80
2020,01,23,16,41,29.80
2020,01,23,16,42,29.80
2020,01,23,16,43,29.90
2020,01,23,16,44,29.90
2020,01,23,16,45,29.90
2020,01,23,16,46,29.80
2020,01,23,16,47,29.80
2020,01,23,16,48,29.80
2020,01,23,16,49,29.80
2020,01,23,16,50,29.80
2020,01,23,16,51,29.80
2020,01,23,16,52,29.70
2020,01,23,16,53,29.70
2020,01,23,16,54,29.70
2020,01,23,16,55,29.60
2020,01,23,16,56,29.60
2020,01,23,16,57,29.60
2020,01,23,16,58,29.50
2020,01,23,16,59,29.50
2020,01,23,17,00,29.40
2020,01,23,17,01,29.50
2020,01,23,17,02,29.50
2020,01,23,17,03,29.50
2020,01,23,17,04,29.50
2020,01,23,17,05,29.50
2020,01,23,17,06,29.50
2020,01,23,17,07,29.40
2020,01,23,17,08,29.40
2020,01,23,17,09,29.40
2020,01,23,17,10,29.40
2020,01,23,17,11,29.50
2020,01,23,17,12,29.50
2020,01,23,17,13,29.60
2020,01,23,17,14,29.60
2020,01,23,17,15,29.60
2020,01,23,17,16,29.60
2020,01,23,17,17,29.70
2020,01,23,17,18,29.70
2020,01,23,17,19,29.70